Location: Gugi
(45.4667°N, 11.1000°E)
Time: 15:14:56
(UTC+00:00)

Cosmos 1862 - Pass Details

Date: 17 November 2019
Orbit: 538 x 557 km, 82.5° (Epoch: 10 December)

Event Time Altitude Azimuth Distance (km) Brightness Sun altitude
Rises 17:25:50 0° 348° (NNW) 2,708 6.9 -17.8°
Reaches altitude 10° 17:28:01 10° 345° (NNW) 1,812 6.0 -18.2°
Maximum altitude 17:31:57 63° 264° (W) 612 3.7 -18.8°
Drops below altitude 10° 17:35:52 10° 184° (S) 1,806 6.1 -19.5°
Sets 17:38:02 0° 181° (S) 2,696 6.9 -19.9°
